[[{"header":{"parameterUnit":"m.s-1","parameterCategory":1,"la1":30.2991,"la2":30.254,"lo1":-89.0895,"lo2":-89.0444,"dy":0.0017,"dx":0.0017,"nx":28,"ny":28,"refTime":"2025-04-30T03:00:00:Z","depth":0,"parameterNumber":2,"parameterNumberName":"U-component_of_WINDS"},"data":[0,0,0,0,0,0,0,0,0,0,0,0,0,0,0,0,0,0,0,0,0,0,0,0,0,0,0,0,0,0,0,0,0,0,0,0,0,0,0,0,0,0,0,0,0,0,0,0,0,0,0,0,0,0,0,0,0,0,-3.2281,-3.2281,0,-3.2349,-3.235,-3.2351,-3.2341,-3.234,-3.2338,-3.2337,-3.2404,-3.2407,-3.241,0,0,0,0,0,0,0,0,0,0,0,0,0,-3.214,-3.2143,-3.2281,-3.2282,-3.2282,-3.2349,-3.235,-3.2351,-3.2341,-3.2339,-3.2338,-3.2337,-3.2403,-3.2407,-3.241,0,0,0,0,0,0,0,0,0,0,0,0,0,-3.2204,-3.2144,-3.2281,-3.2286,-3.2287,-3.2349,-3.235,-3.2351,-3.2341,-3.2339,-3.2338,-3.2336,-3.2402,-3.2406,-3.241,-3.2471,0,0,-3.2423,-3.2425,0,0,0,0,0,0,0,0,-3.22,-3.2209,-3.2284,-3.2285,-3.2287,-3.2335,-3.2325,-3.2391,-3.2342,-3.232,-3.2337,-3.2335,-3.2382,-3.2388,-3.2404,-3.2474,-3.2477,-3.2424,-3.2426,-3.2428,-3.2429,0,0,0,0,0,0,0,-3.2196,-3.2206,-3.2308,-3.2285,-3.2287,-3.2284,-3.2291,-3.2337,-3.236,-3.2322,-3.2322,-3.233,-3.2383,-3.24,-3.2406,-3.2478,-3.2424,-3.2428,-3.243,-3.2432,-3.2602,-3.2603,0,0,0,0,0,0,-3.2191,-3.2203,-3.2305,-3.231,-3.2239,-3.2288,-3.2296,-3.2321,-3.2359,-3.2364,-3.2331,-3.2329,-3.2394,-3.2401,-3.2408,-3.2481,-3.2428,-3.2432,-3.2435,-3.26,-3.2602,-3.2604,0,0,0,0,0,0,-3.2188,-3.22,-3.2303,-3.2256,-3.2269,-3.2292,-3.232,-3.2323,-3.2341,-3.2366,-3.237,-3.2345,-3.2393,-3.2402,-3.2456,-3.2484,-3.2434,-3.2438,-3.2597,-3.26,-3.2603,-3.2628,0,0,0,0,0,0,-3.2184,-3.2199,-3.2222,-3.2257,-3.2272,-3.2349,-3.2322,-3.2326,-3.2349,-3.2347,-3.2381,-3.2385,-3.2392,-3.245,-3.246,-3.2489,-3.2441,-3.2595,-3.2599,-3.2602,-3.2625,-3.2632,-3.2638,0,0,0,0,0,-3.2179,-3.2226,-3.2223,-3.2236,-3.2301,-3.2351,-3.2359,-3.2368,-3.2351,-3.2374,-3.2391,-3.2383,-3.248,-3.2455,-3.2467,-3.2497,-3.2593,-3.2598,-3.2602,-3.2622,-3.263,-3.2637,0,0,0,0,0,0,-3.2192,-3.223,-3.2228,-3.2288,-3.2317,-3.2349,-3.2379,-3.2376,-3.241,-3.2406,-3.2415,-3.2423,-3.2477,-3.2493,-3.2465,-3.2558,-3.2534,-3.2541,-3.2545,-3.2553,-3.256,-3.2553,-3.2445,0,0,0,0,0,-3.2202,-3.224,-3.2271,-3.2321,-3.2336,-3.2355,-3.2377,-3.2382,-3.2411,-3.2423,-3.2444,-3.2472,-3.2509,-3.2532,-3.2567,-3.2629,-3.2635,-3.2655,-3.2662,-3.2667,-3.2672,-3.2705,-3.2714,-3.2619,-3.2619,-3.2618,0,0,-3.2223,-3.2248,-3.2271,-3.2324,-3.2347,-3.2386,-3.2365,-3.2407,-3.2435,-3.2429,-3.2481,-3.2497,-3.253,-3.2587,-3.2614,-3.2602,-3.27,-3.2672,-3.2676,-3.2678,-3.2711,-3.272,-3.2728,-3.2622,-3.2621,-3.2621,0,0,-3.228,-3.2304,-3.2348,-3.2372,-3.2407,-3.242,-3.2431,-3.2465,-3.2476,-3.2529,-3.2526,-3.256,-3.2623,-3.2646,-3.2666,-3.2736,-3.273,-3.2747,-3.2778,-3.2811,-3.2819,-3.2825,-3.2849,-3.2858,-3.2753,-3.2753,-3.2753,0,-3.23,-3.2359,-3.237,-3.2413,-3.2436,-3.2435,-3.2479,-3.2502,-3.2547,-3.2563,-3.255,-3.263,-3.2651,-3.2715,-3.2732,-3.2749,-3.2761,-3.2742,-3.2817,-3.2824,-3.283,-3.2853,-3.2862,-3.2754,-3.2754,-3.2754,-3.2754,0,-3.2382,-3.2423,-3.2455,-3.25,-3.2527,-3.257,-3.2588,-3.2614,-3.2618,-3.2632,-3.2686,-3.2713,-3.2754,-3.277,-3.2772,-3.2834,-3.2825,-3.2815,-3.279,-3.2841,-3.2862,-3.2871,-3.2757,-3.2756,-3.2756,-3.2755,0,0,-3.2446,-3.2499,-3.251,-3.2531,-3.2572,-3.2603,-3.2647,-3.2688,-3.271,-3.2742,-3.2779,-3.2834,-3.2825,-3.2848,-3.2854,-3.2883,-3.2936,-3.2869,-3.287,-3.2879,-3.3004,-3.301,-3.302,-3.2933,-3.2935,-3.2937,-3.3001,0,-3.2506,-3.2584,-3.2597,-3.2665,-3.2703,-3.2704,-3.2742,-3.2771,-3.2786,-3.2821,-3.2838,-3.2876,-3.2862,-3.2876,-3.2905,-3.2923,-3.296,-3.2919,-3.2966,-3.2967,-3.2955,-3.3032,-3.3038,-3.3097,-3.301,-3.3011,-3.3012,0,-3.2585,-3.2621,-3.2693,-3.273,-3.2746,-3.278,-3.282,-3.2853,-3.2886,-3.2896,-3.2923,-3.2926,-3.2972,-3.2948,-3.301,-3.2981,-3.3002,-3.3014,-3.3017,-3.3019,-3.2991,-3.3035,-3.3117,-3.3125,-3.3026,-3.3025,-3.3024,0,-3.2623,-3.2689,-3.2741,-3.2759,-3.2804,-3.2828,-3.2847,-3.2879,-3.2903,-3.2938,-3.2954,-3.2994,-3.3015,-3.3045,-3.3059,-3.304,-3.3121,-3.3098,-3.3129,-3.3128,-3.3143,-3.3141,-3.3227,-3.316,-3.316,-3.316,-3.316,0,-3.2687,-3.2731,-3.2759,-3.279,-3.284,-3.2855,-3.2903,-3.2922,-3.2951,-3.2986,-3.299,-3.3023,-3.304,-3.3076,-3.3087,-3.3137,-3.3147,-3.3155,-3.3157,-3.3153,-3.3152,-3.3165,-3.316,-3.3162,-3.3162,-3.3161,-3.3161,0,-3.2736,-3.2757,-3.2813,-3.2852,-3.2863,-3.2897,-3.293,-3.2961,-3.2978,-3.3022,-3.3034,-3.306,-3.3102,-3.312,-3.3171,-3.3179,-3.3235,-3.3235,-3.3224,-3.3224,-3.3254,-3.325,-3.3349,-3.3363,-3.3288,-3.3289,-3.329,0,-3.2774,-3.2808,-3.2852,-3.2876,-3.2897,-3.2936,-3.2962,-3.2979,-3.3005,-3.3047,-3.3073,-3.3116,-3.315,-3.3218,-3.324,-3.328,-3.328,-3.3312,-3.3286,-3.3281,-3.3279,-3.3276,-3.3279,-3.3316,-3.3317,-3.3317,-3.3318,0,-3.284,-3.2849,-3.2887,-3.2928,-3.2959,-3.2992,-3.3025,-3.3045,-3.3067,-3.3096,-3.314,-3.3168,-3.3222,-3.3263,-3.3305,-3.3325,-3.3325,-3.3327,-3.3336,-3.3331,-3.3323,-3.3326,-3.3235,-3.3323,-3.3323,-3.3323,-3.3322,-3.3322,-3.2884,-3.2914,-3.295,-3.2992,-3.3019,-3.3049,-3.308,-3.3102,-3.3139,-3.3185,-3.3193,-3.324,-3.3274,-3.333,-3.3352,-3.3388,-3.338,-3.3393,-3.3396,-3.3399,-3.34,-3.3319,-3.3396,-3.3396,-3.3396,-3.3396,-3.3396,0,-3.2948,-3.2972,-3.3011,-3.3057,-3.309,-3.309,-3.3126,-3.3154,-3.3195,-3.3227,-3.3262,-3.3313,-3.3355,-3.3382,-3.3424,-3.3448,-3.3449,-3.3459,-3.3456,-3.346,-3.3406,-3.3393,-3.3457,-3.3457,-3.3457,-3.3457,-3.3457,-3.3457,-3.2986,-3.3037,-3.3051,-3.3116,-3.314,-3.3186,-3.3207,-3.3236,-3.3262,-3.3319,-3.3354,-3.3372,-3.3403,-3.3447,-3.3485,-3.3492,-3.3507,-3.3516,-3.3523,-3.347,-3.3464,-3.3458,-3.3446,-3.352,-3.352,-3.3574,-3.3574,-3.3575]},{"header":{"parameterUnit":"m.s-1","parameterCategory":1,"la1":30.2991,"la2":30.254,"lo1":-89.0895,"lo2":-89.0444,"dy":0.0017,"dx":0.0017,"nx":28,"ny":28,"refTime":"2025-04-30T03:00:00:Z","depth":0,"parameterNumber":3,"parameterNumberName":"V-component_of_WINDS"},"data":[0,0,0,0,0,0,0,0,0,0,0,0,0,0,0,0,0,0,0,0,0,0,0,0,0,0,0,0,0,0,0,0,0,0,0,0,0,0,0,0,0,0,0,0,0,0,0,0,0,0,0,0,0,0,0,0,0,0,3.3399,3.3399,0,3.3392,3.3392,3.3392,3.3362,3.3361,3.3361,3.336,3.3352,3.3352,3.3353,0,0,0,0,0,0,0,0,0,0,0,0,0,3.3385,3.3386,3.3399,3.3399,3.3399,3.3392,3.3392,3.3392,3.3362,3.3361,3.3361,3.336,3.3352,3.3352,3.3353,0,0,0,0,0,0,0,0,0,0,0,0,0,3.3386,3.3386,3.3399,3.3383,3.3382,3.3392,3.3392,3.3392,3.3362,3.3361,3.336,3.3359,3.3351,3.3352,3.3353,3.3378,0,0,3.3355,3.3355,0,0,0,0,0,0,0,0,3.3386,3.3387,3.3385,3.3384,3.3382,3.3377,3.3384,3.3387,3.3363,3.337,3.336,3.3359,3.3361,3.3361,3.3362,3.3377,3.3377,3.3355,3.3355,3.3355,3.3356,0,0,0,0,0,0,0,3.3386,3.3387,3.3396,3.3385,3.3384,3.3376,3.3375,3.3385,3.3371,3.3369,3.3367,3.3367,3.336,3.3361,3.3361,3.3377,3.3355,3.3355,3.3356,3.3356,3.3414,3.3415,0,0,0,0,0,0,3.3388,3.3387,3.3396,3.3396,3.3382,3.3377,3.3376,3.338,3.3371,3.3369,3.3367,3.3365,3.3361,3.3361,3.3361,3.3391,3.3355,3.3356,3.3356,3.3413,3.3414,3.3416,0,0,0,0,0,0,3.3388,3.3389,3.3397,3.3391,3.3391,3.3379,3.3383,3.338,3.3381,3.337,3.3367,3.3371,3.336,3.336,3.3374,3.339,3.3356,3.3357,3.3412,3.3414,3.3415,3.3449,0,0,0,0,0,0,3.3388,3.339,3.3399,3.3391,3.3392,3.341,3.3384,3.3381,3.3383,3.338,3.3373,3.3371,3.3359,3.3373,3.3375,3.339,3.3357,3.341,3.3413,3.3415,3.3447,3.3452,3.3457,0,0,0,0,0,3.3388,3.3408,3.3399,3.3401,3.3403,3.3411,3.3411,3.3398,3.3384,3.3394,3.3386,3.3371,3.3388,3.3375,3.3376,3.3392,3.3409,3.3412,3.3414,3.3445,3.3451,3.3457,0,0,0,0,0,0,3.3416,3.3407,3.3397,3.3416,3.3415,3.3406,3.3417,3.3405,3.3407,3.3404,3.3387,3.3386,3.3403,3.3399,3.3385,3.3417,3.3396,3.3399,3.3419,3.3425,3.343,3.343,3.3358,0,0,0,0,0,3.3425,3.3433,3.3424,3.3441,3.3441,3.343,3.3432,3.3423,3.3421,3.342,3.3413,3.3412,3.3417,3.3421,3.3425,3.3446,3.3445,3.3458,3.3463,3.3467,3.347,3.3483,3.3489,3.3424,3.3424,3.3424,0,0,3.3443,3.3438,3.3444,3.3447,3.3445,3.3453,3.3429,3.3439,3.3445,3.3421,3.3434,3.343,3.3427,3.3446,3.3454,3.3443,3.3487,3.347,3.3474,3.3474,3.3486,3.3492,3.3497,3.3426,3.3426,3.3426,0,0,3.3479,3.3477,3.3491,3.3491,3.3488,3.3481,3.3485,3.3478,3.3475,3.3489,3.3471,3.3479,3.3487,3.3487,3.3487,3.3527,3.3513,3.3528,3.3554,3.3566,3.3571,3.3576,3.3591,3.3596,3.3531,3.3531,3.3531,0,3.3501,3.3514,3.35,3.3512,3.3514,3.3494,3.3509,3.3509,3.3508,3.351,3.3498,3.3511,3.3507,3.3526,3.3536,3.3537,3.3541,3.3529,3.3572,3.3576,3.358,3.3594,3.3599,3.3533,3.3533,3.3533,3.3533,0,3.3542,3.3551,3.3563,3.3564,3.3567,3.3581,3.357,3.3575,3.3565,3.3559,3.3574,3.357,3.3573,3.3577,3.3567,3.3595,3.3589,3.3575,3.3554,3.3588,3.3601,3.3606,3.3536,3.3535,3.3535,3.3534,0,0,3.3595,3.359,3.3594,3.3595,3.3593,3.3599,3.3612,3.3617,3.3622,3.3623,3.3633,3.3643,3.363,3.3631,3.3622,3.3633,3.3665,3.3617,3.3617,3.3627,3.3697,3.3708,3.3714,3.3657,3.3657,3.3658,3.3698,0,3.363,3.3652,3.3642,3.3665,3.3674,3.3656,3.3668,3.3668,3.3663,3.367,3.3664,3.3671,3.3654,3.3655,3.3665,3.3659,3.3679,3.3656,3.3667,3.3667,3.3668,3.3721,3.3732,3.3769,3.3703,3.3703,3.3704,0,3.3674,3.3678,3.3703,3.37,3.3704,3.3714,3.3718,3.3725,3.3725,3.3721,3.3723,3.3711,3.3724,3.3704,3.3722,3.3707,3.3711,3.3709,3.371,3.371,3.3688,3.3723,3.3781,3.3787,3.3712,3.3711,3.371,0,3.3712,3.3723,3.374,3.3741,3.3738,3.3746,3.3745,3.3744,3.3748,3.3752,3.3754,3.3759,3.3762,3.3766,3.3757,3.3743,3.3777,3.3755,3.3774,3.3774,3.3781,3.3781,3.3841,3.3784,3.3783,3.3783,3.3783,0,3.3753,3.3769,3.3757,3.3767,3.3785,3.3773,3.3791,3.3788,3.3788,3.3797,3.3782,3.3791,3.3778,3.3786,3.3778,3.3795,3.3796,3.3794,3.3791,3.3795,3.3796,3.3797,3.3794,3.3785,3.3784,3.3784,3.3784,0,3.3797,3.379,3.3807,3.3803,3.3803,3.3816,3.3813,3.3823,3.3818,3.3831,3.3833,3.3825,3.3834,3.3825,3.3833,3.3828,3.3851,3.3844,3.3851,3.3849,3.3869,3.3867,3.3932,3.394,3.3877,3.3878,3.3879,0,3.3824,3.3836,3.3834,3.384,3.3841,3.385,3.3855,3.3844,3.3849,3.3851,3.3861,3.3869,3.3875,3.389,3.3885,3.3892,3.3886,3.3908,3.3886,3.389,3.3887,3.3886,3.3888,3.3912,3.3913,3.3914,3.3914,0,3.3872,3.3869,3.3876,3.3883,3.3889,3.3893,3.3897,3.3902,3.3891,3.3898,3.3908,3.3913,3.3922,3.3931,3.3936,3.3935,3.3923,3.3921,3.3926,3.393,3.3933,3.3933,3.3863,3.3919,3.3919,3.3919,3.3918,3.3918,3.3909,3.392,3.3921,3.393,3.3932,3.3936,3.3945,3.3942,3.395,3.3957,3.3951,3.3963,3.3964,3.397,3.3971,3.398,3.3971,3.3978,3.3979,3.3981,3.3985,3.3932,3.3981,3.3981,3.3981,3.3981,3.3981,0,3.3958,3.3958,3.3967,3.3973,3.398,3.3969,3.3973,3.398,3.3991,3.3993,3.4,3.4012,3.4021,3.4017,3.4025,3.4033,3.4028,3.4036,3.4035,3.4035,3.3992,3.3988,3.404,3.404,3.404,3.404,3.404,3.404,3.3984,3.4002,3.3998,3.4017,3.4017,3.403,3.4033,3.4037,3.4039,3.4053,3.4061,3.4059,3.4059,3.4067,3.4075,3.4074,3.4077,3.4087,3.4084,3.4044,3.4038,3.4032,3.4028,3.4088,3.4088,3.4126,3.4127,3.4127]}]]